User: anonymous   Login
Location: Lima
(44.6384°N, 112.5920°W)
Time: 04:25:32
(UTC+00:00)
Language:

NOAA 15 - Orbit

View from above orbital plane
View from above orbital plane
View from above satellite
View from above satellite

Ground track
Ground track

The orbit data is extracted from the following two-line orbital elements,

1 25338U 98030A   24106.81386813  .00000380  00000-0  17539-3 0  9991
2 25338  98.5750 135.2281 0011163 142.5627 217.6333 14.26534581348546
Epoch (UTC): 15 April 2024 19:31:58
Eccentricity: 0.0011163
inclination: 98.5750°
perigee height: 795 km
apogee height: 811 km
right ascension of ascending node: 135.2281°
argument of perigee: 142.5627°
revolutions per day: 14.26534581
mean anomaly at epoch: 217.6333°
orbit number at epoch: 34854

The dashed part of the orbit path shows where the satellite is in the earth's shadow,  

DLR